Regional Weather Roundup
Issued by NWS

Home | Current Version | Previous Version | Graphics & Text | Print | Product List | Glossary On
Versions: 1 2 3 4 5 6 7 8 9 10 11 12 13 14 15 16 17 18 19 20 21 22 23 24 25 26 27 28 29 30 31 32 33 34 35 36 37 38 39 40 41 42 43 44 45 46 47 48 49 50
000
ASUS43 KOAX 292110
RWRNE

WEATHER ROUNDUP FOR NEBRASKA
NATIONAL WEATHER SERVICE OMAHA NE
400 PM CDT MON AUG 29 2016

NOTES: SATELLITE DATA IS BEING USED TO AUGMENT CLOUD COVER ABOVE
       12000 FEET.
       "FAIR" INDICATES FEW OR NO CLOUDS BELOW 12,000 FEET WITH NO
       SIGNIFICANT WEATHER AND/OR OBSTRUCTIONS TO VISIBILITY.

  * THESE STATIONS DO NOT REPORT WEATHER SUCH AS RAIN...SNOW OR FOG.

NEZ001>004-019>022-054>056-292200-
NEBRASKA PANHANDLE

CITY           SKY/WX    TMP DP  RH WIND       PRES   REMARKS
SCOTTSBLUFF    CLOUDY    89  50  26 E14       30.22F
ALLIANCE       CLOUDY    85  54  34 NE10      30.22F
CHADRON        SUNNY     86  52  30 E9        30.21F
KIMBALL        CLOUDY    83  50  31 NE10G21   30.27F
SIDNEY         MOSUNNY   83  54  36 NE14      30.25F
$$

NEZ057>060-069>072-079>082-292200-
SOUTHWEST NEBRASKA

CITY           SKY/WX    TMP DP  RH WIND       PRES   REMARKS
NORTH PLATTE   CLOUDY    80  64  58 SE8       30.19F
IMPERIAL       CLOUDY    79  56  45 SE9       30.21F
LEXINGTON      MOSUNNY   79  64  60 SW8       30.20F
MCCOOK         CLOUDY    77  62  59 SW9       30.20F
$$

NEZ005>010-023>029-035>040-094-292200-
NORTH CENTRAL NEBRASKA

CITY           SKY/WX    TMP DP  RH WIND       PRES   REMARKS
VALENTINE      MOSUNNY   89  57  33 SE7G16    30.16F
AINSWORTH      MOSUNNY   84  64  50 S13       30.18F
BROKEN BOW     CLOUDY    81  64  56 S9        30.19F
O`NEILL        CLOUDY    84  63  49 S7        30.17F
ORD            CLOUDY    82  64  54 S8        30.16F
THEDFORD       CLOUDY    82  62  51 SE10      30.21F
$$

NEZ041-046>049-061>064-073>077-083>087-292200-
SOUTH CENTRAL NEBRASKA

CITY           SKY/WX    TMP DP  RH WIND       PRES   REMARKS
GRAND ISLAND   CLOUDY    84  66  54 W5        30.16F
AURORA         CLOUDY    84  69  59 SW6       30.15F
HASTINGS       CLOUDY    81  67  62 W8        30.17F
HEBRON         CLOUDY    72  64  76 W5        30.15F
HOLDREGE       CLOUDY    76  66  72 NW3       30.19F
KEARNEY *      CLOUDY    79  66  65 CALM      30.17F
YORK           MOSUNNY   86  66  51 CALM      30.14F
$$

NEZ011>018-030>034-042>045-292200-
NORTHEAST NEBRASKA

CITY           SKY/WX    TMP DP  RH WIND       PRES   REMARKS
NORFOLK        PTSUNNY   83  65  54 S3        30.15F
ALBION         MOSUNNY   82  66  58 S6        30.17F
BLAIR          MOSUNNY   86  72  63 CALM      30.14F HX  92
FREMONT        MOSUNNY   85  70  60 CALM      30.14F HX  90
TEKAMAH        PTSUNNY   85  73  67 CALM      30.13F HX  91
WAYNE          PTSUNNY   81  72  74 S5        30.15F
$$

NEZ050>053-065>068-078-088>093-292200-
SOUTHEAST NEBRASKA

CITY           SKY/WX    TMP DP  RH WIND       PRES   REMARKS
LINCOLN        CLOUDY    83  73  72 N9        30.13F THUNDER
OMAHA EPPLEY   PTSUNNY   86  74  67 N8        30.11F HX  94
BEATRICE       CLOUDY    86  70  58 S10       30.12F HX  91
FALLS CITY     MOSUNNY   87  71  58 SE7       30.10F HX  93
NEBRASKA CITY  SUNNY     86  71  61 SE6       30.13F HX  91
PLATTSMOUTH    SUNNY     86  70  58 SE5       30.13F HX  91
$$

NEZ044-045-051>053-067-292200-
OMAHA AREA

CITY           SKY/WX    TMP DP  RH WIND       PRES   REMARKS
OMAHA EPPLEY   PTSUNNY   86  74  67 N8        30.11F HX  94
BLAIR          MOSUNNY   86  72  63 CALM      30.14F HX  92
FREMONT        MOSUNNY   85  70  60 CALM      30.14F HX  90
MILLARD        SUNNY     86  71  62 SE3       30.12F HX  91
OFFUTT AFB     SUNNY     88  71  57 S3        30.11F HX  93
PLATTSMOUTH    SUNNY     86  70  58 SE5       30.13F HX  91
WAHOO          FAIR      84  72  67 SE3       30.13F
$$




USA.gov is the U.S. government's official web portal to all federal, state and local government web resources and services.